Jackson, MI

5:25 PM EDT on August 24, 2019 (GMT -0400)
Jackson County-Reynolds

Weather History for KJXN - June, 2019

Change the Weather History Date:

Wednesday, June 12, 2019

  Actual Average Record
Temperature  
Mean Temperature 65 °F 67 °F  
Max Temperature 75 °F 78 °F 92 °F (1956)
Min Temperature 54 °F 55 °F 40 °F (1985)
Degree Days  
Heating Degree Days 0 2  
Month to date heating degree days 29 35  
Since 1 June heating degree days 29 35  
Since 1 July heating degree days 6665 6637  
Cooling Degree Days 0 4  
Month to date cooling degree days 17 33  
Year to date cooling degree days 27 70  
Since 1 June cooling degree days 17 33  
Growing Degree Days 15 (Base 50)    
Moisture  
Dew Point 50 °F    
Average Humidity 61    
Maximum Humidity 83    
Minimum Humidity 38    
Precipitation  
Precipitation 0.06 in 0.11 in 0.76 in (1970)
Month to date precipitation 2.61 1.29  
Year to date precipitation 14.62 11.89  
Sea Level Pressure  
Sea Level Pressure 29.94 in    
Wind  
Wind Speed 8 mph (SE)    
Max Wind Speed 17 mph    
Max Gust Speed 25 mph    
Visibility 10 miles    
Events Rain    
T = Trace of Precipitation, MM = Missing Value Source: NWS Daily Summary

Daily Weather History Graph

Daily Weather History Graph

Search for Another Location

Airport or City:

Astronomy

Jun. 12, 2019 Rise Set
Actual Time 6:00 AM EDT 9:14 PM EDT
Civil Twilight 5:26 AM EDT 9:49 PM EDT
Nautical Twilight 4:41 AM EDT 10:33 PM EDT
Astronomical Twilight 3:48 AM EDT 11:27 PM EDT
Moon 4:14 PM EDT (6/12) 3:21 AM EDT (6/12)
Length of Visible Light 16h 22m
Length of Day
15h 13m
Waxing Gibbous, 76% of the Moon is Illuminated
Jun 12
Waxing Gibbous
Jun 17
Full
Jun 25
Last Quarter
Jul 2
New
Jul 9
First Quarter

Hourly Weather History & Observations

Time (EDT) Temp. Dew Point Humidity Pressure Visibility Wind Dir Wind Speed Gust Speed Precip Events Conditions
12:56 AM 55.9 °F 50.0 °F 80% 30.09 in 10.0 mi Calm Calm - N/A   Clear
1:56 AM 57.9 °F 48.0 °F 70% 30.07 in 10.0 mi SE 4.6 mph - N/A   Clear
2:56 AM 57.0 °F 48.0 °F 72% 30.06 in 10.0 mi SSE 4.6 mph - N/A   Clear
3:56 AM 55.9 °F 48.0 °F 75% 30.06 in 10.0 mi SSE 5.8 mph - N/A   Clear
4:56 AM 55.9 °F 48.0 °F 75% 30.05 in 10.0 mi SE 4.6 mph - N/A   Clear
5:56 AM 55.9 °F 48.9 °F 77% 30.05 in 10.0 mi SSE 5.8 mph - N/A   Clear
6:56 AM 57.9 °F 50.0 °F 75% 30.04 in 10.0 mi SE 6.9 mph - N/A   Clear
7:56 AM 61.0 °F 52.0 °F 72% 30.03 in 10.0 mi SSE 6.9 mph - N/A   Clear
8:56 AM 66.9 °F 53.1 °F 61% 30.02 in 10.0 mi SE 8.1 mph - N/A   Clear
9:56 AM 70.0 °F 55.0 °F 59% 30.01 in 10.0 mi SE 9.2 mph - N/A   Clear
10:56 AM 72.0 °F 53.1 °F 51% 29.99 in 10.0 mi South 10.4 mph 21.9 mph N/A   Clear
11:40 AM 73.0 °F 51.1 °F 46% 29.98 in 10.0 mi SSE 13.8 mph 25.3 mph N/A   Clear
11:56 AM 73.9 °F 52.0 °F 46% 29.97 in 10.0 mi South 12.7 mph 24.2 mph N/A   Clear
12:56 PM 73.9 °F 51.1 °F 45% 29.95 in 10.0 mi South 13.8 mph 23.0 mph N/A   Scattered Clouds
1:56 PM 73.0 °F 51.1 °F 46% 29.92 in 10.0 mi South 10.4 mph 23.0 mph N/A   Partly Cloudy
2:56 PM 73.9 °F 50.0 °F 43% 29.91 in 10.0 mi SSE 9.2 mph 20.7 mph N/A   Partly Cloudy
3:56 PM 73.9 °F 46.9 °F 38% 29.89 in 10.0 mi SSE 10.4 mph - N/A   Clear
4:56 PM 73.0 °F 46.9 °F 39% 29.86 in 10.0 mi SSE 9.2 mph - N/A   Clear
5:56 PM 75.0 °F 48.9 °F 40% 29.83 in 10.0 mi SSE 4.6 mph - N/A   Clear
6:56 PM 73.0 °F 46.9 °F 39% 29.81 in 10.0 mi SE 4.6 mph - N/A   Clear
7:56 PM 71.1 °F 50.0 °F 47% 29.80 in 10.0 mi East 6.9 mph - N/A   Clear
8:56 PM 69.1 °F 50.0 °F 51% 29.78 in 10.0 mi East 5.8 mph - N/A   Clear
9:56 PM 66.9 °F 48.9 °F 52% 29.75 in 10.0 mi East 8.1 mph - N/A   Clear
10:56 PM 64.0 °F 52.0 °F 65% 29.75 in 10.0 mi NE 6.9 mph - N/A   Mostly Cloudy
11:56 PM 62.1 °F 55.9 °F 80% 29.74 in 6.0 mi NW 6.9 mph - 0.01 in Rain Light Rain